• In Germany
  • List of Countries
  • For 7 days
  • Water Temperature
  • Satellite Maps
  • Weather Map
  • Weather Widgets
  • user-avatar
    Login

    Hourly Weather Isachkovo

    Today, 20 June, Wednesday

    Time Temperature Precipitation Wind Pressure Humidity
    00:00 +14°C° 0 mm 3 mps 745 mmHg 92%
    01:00 +13°C° 0 mm 3 mps 745 mmHg 93%
    02:00 +12°C° 0 mm 3 mps 745 mmHg 95%
    03:00 +12°C° 0 mm 3 mps 745 mmHg 94%
    04:00 +12°C° 0 mm 3 mps 745 mmHg 92%
    05:00 +12°C° 0 mm 3 mps 745 mmHg 90%
    06:00 +14°C° 0 mm 4 mps 745 mmHg 80%
    07:00 +17°C° 0 mm 4 mps 745 mmHg 70%
    08:00 +19°C° 0 mm 4 mps 746 mmHg 56%
    09:00 +20°C° 0 mm 5 mps 745 mmHg 52%
    10:00 +20°C° 0 mm 5 mps 745 mmHg 48%
    11:00 +21°C° 0 mm 6 mps 745 mmHg 44%
    12:00 +22°C° 0 mm 6 mps 745 mmHg 42%
    13:00 +22°C° 0 mm 6 mps 745 mmHg 40%
    14:00 +23°C° 0 mm 6 mps 745 mmHg 38%
    15:00 +22°C° 0 mm 5 mps 745 mmHg 40%
    16:00 +22°C° 0 mm 5 mps 745 mmHg 41%
    17:00 +22°C° 0 mm 5 mps 745 mmHg 43%
    18:00 +20°C° 0 mm 4 mps 745 mmHg 51%
    19:00 +19°C° 0 mm 3 mps 745 mmHg 60%
    20:00 +17°C° 0 mm 2 mps 745 mmHg 68%
    21:00 +16°C° 0 mm 2 mps 746 mmHg 70%
    22:00 +15°C° 0 mm 2 mps 746 mmHg 73%
    23:00 +13°C° 0 mm 3 mps 746 mmHg 75%

    Tomorrow, 21 June, Thursday

    Time Temperature Precipitation Wind Pressure Humidity
    00:00 +13°C° 0 mm 2 mps 746 mmHg 78%
    01:00 +13°C° 0 mm 2 mps 746 mmHg 80%
    02:00 +12°C° 0 mm 2 mps 746 mmHg 82%
    03:00 +12°C° 0 mm 3 mps 746 mmHg 82%
    04:00 +12°C° 0 mm 3 mps 746 mmHg 82%
    05:00 +12°C° 0 mm 3 mps 746 mmHg 82%
    06:00 +14°C° 0 mm 4 mps 745 mmHg 77%
    07:00 +17°C° 0 mm 4 mps 745 mmHg 71%
    08:00 +19°C° 0 mm 4 mps 745 mmHg 66%
    09:00 +21°C° 0 mm 5 mps 745 mmHg 61%
    10:00 +23°C° 0 mm 5 mps 745 mmHg 56%
    11:00 +25°C° 0 mm 5 mps 744 mmHg 50%
    12:00 +26°C° 0 mm 5 mps 744 mmHg 49%
    13:00 +26°C° 0 mm 5 mps 744 mmHg 48%
    14:00 +27°C° 0 mm 5 mps 743 mmHg 48%
    15:00 +27°C° 0 mm 5 mps 743 mmHg 50%
    16:00 +26°C° 0 mm 4 mps 742 mmHg 52%
    17:00 +26°C° 0 mm 4 mps 742 mmHg 55%
    18:00 +25°C° 0 mm 4 mps 742 mmHg 62%
    19:00 +22°C° 0 mm 3 mps 742 mmHg 69%
    20:00 +21°C° 0 mm 3 mps 741 mmHg 76%
    21:00 +20°C° 0 mm 3 mps 741 mmHg 77%
    22:00 +20°C° 0 mm 3 mps 741 mmHg 78%
    23:00 +19°C° 0 mm 4 mps 740 mmHg 79%

    Day after tomorrow, 22 June, Friday

    Time Temperature Precipitation Wind Pressure Humidity
    00:00 +19°C° 0 mm 4 mps 740 mmHg 80%
    01:00 +19°C° 0 mm 4 mps 739 mmHg 81%
    02:00 +19°C° 0 mm 4 mps 739 mmHg 82%
    03:00 +19°C° 0.2 mm 4 mps 738 mmHg 84%
    04:00 +19°C° 0.2 mm 4 mps 737 mmHg 87%
    05:00 +19°C° 0.2 mm 5 mps 737 mmHg 90%
    06:00 +19°C° 0.3 mm 5 mps 737 mmHg 89%
    07:00 +20°C° 0.3 mm 5 mps 737 mmHg 89%
    08:00 +21°C° 0.3 mm 6 mps 737 mmHg 88%
    09:00 +17°C° 0.6 mm 5 mps 737 mmHg 90%
    10:00 +15°C° 0.6 mm 4 mps 738 mmHg 92%
    11:00 +13°C° 0.6 mm 3 mps 738 mmHg 94%
    12:00 +14°C° 0 mm 3 mps 739 mmHg 88%
    13:00 +14°C° 0 mm 3 mps 739 mmHg 82%
    14:00 +16°C° 0 mm 3 mps 740 mmHg 76%
    15:00 +16°C° 0 mm 3 mps 740 mmHg 74%
    16:00 +17°C° 0 mm 4 mps 740 mmHg 72%
    17:00 +17°C° 0 mm 4 mps 740 mmHg 70%
    18:00 +16°C° 0 mm 3 mps 740 mmHg 72%
    19:00 +16°C° 0 mm 3 mps 741 mmHg 73%
    20:00 +14°C° 0 mm 3 mps 741 mmHg 74%
    21:00 +14°C° 0 mm 3 mps 741 mmHg 74%
    22:00 +13°C° 0 mm 3 mps 741 mmHg 74%
    23:00 +12°C° 0 mm 3 mps 741 mmHg 74%

    23 June, Saturday

    Time Temperature Precipitation Wind Pressure Humidity
    00:00 +12°C° 0 mm 3 mps 742 mmHg 75%
    01:00 +12°C° 0 mm 3 mps 742 mmHg 77%
    02:00 +12°C° 0 mm 2 mps 742 mmHg 78%
    03:00 +12°C° 0 mm 2 mps 742 mmHg 80%
    04:00 +12°C° 0 mm 2 mps 743 mmHg 81%
    05:00 +12°C° 0 mm 2 mps 743 mmHg 83%
    06:00 +12°C° 0 mm 2 mps 743 mmHg 80%
    07:00 +13°C° 0 mm 2 mps 743 mmHg 76%
    08:00 +14°C° 0 mm 2 mps 743 mmHg 73%
    09:00 +15°C° 0 mm 2 mps 743 mmHg 66%
    10:00 +17°C° 0 mm 2 mps 743 mmHg 59%
    11:00 +18°C° 0 mm 2 mps 743 mmHg 52%
    12:00 +19°C° 0 mm 2 mps 743 mmHg 50%
    13:00 +19°C° 0 mm 2 mps 743 mmHg 48%
    14:00 +20°C° 0 mm 2 mps 743 mmHg 46%
    15:00 +19°C° 0 mm 2 mps 743 mmHg 49%
    16:00 +19°C° 0 mm 2 mps 743 mmHg 52%
    17:00 +19°C° 0 mm 2 mps 743 mmHg 55%
    18:00 +17°C° 0.1 mm 2 mps 742 mmHg 63%
    19:00 +16°C° 0.1 mm 2 mps 742 mmHg 71%
    20:00 +15°C° 0.1 mm 2 mps 742 mmHg 79%
    21:00 +13°C° 0 mm 2 mps 742 mmHg 84%
    22:00 +12°C° 0 mm 2 mps 742 mmHg 88%
    23:00 +10°C° 0 mm 2 mps 742 mmHg 92%

    24 June, Sunday

    Time Temperature Precipitation Wind Pressure Humidity
    00:00 +10°C° 0 mm 2 mps 742 mmHg 93%
    01:00 +9°C° 0 mm 2 mps 743 mmHg 95%
    02:00 +9°C° 0 mm 2 mps 743 mmHg 96%
    03:00 +9°C° 0 mm 2 mps 743 mmHg 95%
    04:00 +10°C° 0 mm 2 mps 743 mmHg 94%
    05:00 +10°C° 0 mm 2 mps 743 mmHg 93%
    06:00 +13°C° 0 mm 2 mps 743 mmHg 85%
    07:00 +15°C° 0 mm 2 mps 743 mmHg 76%
    08:00 +17°C° 0 mm 2 mps 744 mmHg 68%
    09:00 +17°C° 0.4 mm 2 mps 744 mmHg 68%
    10:00 +18°C° 0.4 mm 2 mps 744 mmHg 68%
    11:00 +18°C° 0.4 mm 2 mps 744 mmHg 68%
    12:00 +18°C° 0.9 mm 2 mps 744 mmHg 71%
    13:00 +18°C° 0.9 mm 2 mps 745 mmHg 74%
    14:00 +18°C° 0.9 mm 3 mps 745 mmHg 77%
    15:00 +18°C° 0.4 mm 2 mps 745 mmHg 74%
    16:00 +18°C° 0.4 mm 2 mps 745 mmHg 72%
    17:00 +18°C° 0.4 mm 2 mps 745 mmHg 70%
    18:00 +17°C° 0.1 mm 2 mps 745 mmHg 75%
    19:00 +16°C° 0.1 mm 1 mps 746 mmHg 80%
    20:00 +15°C° 0.1 mm 1 mps 746 mmHg 84%
    21:00 +13°C° 0 mm 1 mps 746 mmHg 86%
    22:00 +12°C° 0 mm 1 mps 746 mmHg 88%
    23:00 +11°C° 0 mm 1 mps 746 mmHg 90%

    25 June, Monday

    Time Temperature Precipitation Wind Pressure Humidity
    00:00 +11°C° 0 mm 1 mps 747 mmHg 90%
    01:00 +10°C° 0 mm 1 mps 747 mmHg 91%
    02:00 +10°C° 0 mm 1 mps 747 mmHg 92%
    03:00 +10°C° 0 mm 1 mps 747 mmHg 92%
    04:00 +11°C° 0 mm 1 mps 747 mmHg 91%
    05:00 +11°C° 0 mm 1 mps 747 mmHg 91%
    06:00 +13°C° 0 mm 2 mps 748 mmHg 82%
    07:00 +15°C° 0 mm 2 mps 748 mmHg 73%
    08:00 +16°C° 0 mm 2 mps 748 mmHg 64%
    09:00 +17°C° 0.1 mm 2 mps 748 mmHg 58%
    10:00 +18°C° 0.1 mm 3 mps 748 mmHg 52%
    11:00 +19°C° 0.1 mm 3 mps 748 mmHg 46%
    12:00 +20°C° 0 mm 3 mps 748 mmHg 43%
    13:00 +20°C° 0 mm 3 mps 748 mmHg 40%
    14:00 +21°C° 0 mm 3 mps 748 mmHg 37%
    15:00 +20°C° 0 mm 3 mps 748 mmHg 41%
    16:00 +20°C° 0 mm 3 mps 748 mmHg 45%
    17:00 +19°C° 0 mm 3 mps 748 mmHg 49%
    18:00 +18°C° 0 mm 3 mps 748 mmHg 59%
    19:00 +16°C° 0 mm 2 mps 748 mmHg 68%
    20:00 +15°C° 0 mm 2 mps 748 mmHg 78%
    21:00 +14°C° 0.1 mm 2 mps 749 mmHg 83%
    22:00 +13°C° 0.1 mm 1 mps 749 mmHg 89%
    23:00 +12°C° 0.1 mm 1 mps 749 mmHg 94%
    Show more